SAI-1 NANOCONNECT-2

Last updated on Dec. 9, 2021, 12:03 a.m. UTC

1 47701U 21015C   21342.18662536 -.00000072  00000+0  00000+0 0  9995
2 47701  97.4446  55.4564 0012474  51.1815 309.0601 15.23681176 43065
UTC
Height (km)
Latitude
Longitude
Inclination
Orbital Period
UTC large
Height (km)
Speed (km/s)
/
Latitude / Longitude
Inclination (degrees)
Orbital Period (minutes)
Azimuth
Elevation
Range (km)
Doppler Factor
iOS Compass Heading
iOS Angle